DW8209 Gubbio IT current weather conditions

sailwx.info

Last reported at 2015-Sep-03 03:50 UTC.
Time now 2015-Sep-03 04:32 UTC

Location: N 43°19' E 012°34'.
View on Google Maps.

See reports from other nearby stations

  
Tides and Currents Weather Stations Pressure Air Temp Water Temp Dewpoint Dewpoint Depression Visibility Wind Speed Wind Dir Waves Ship Positions
date/time (UTC)wind fromknots sea level pressurealtimeterstation pressurevisibilityair tempwater tempwave heightnotes
2015-Sep-03 03:50
2015-Sep-03 03:35
2015-Sep-03 03:05
2015-Sep-03 02:50 204 17.8
2015-Sep-03 02:35 204 18.3
2015-Sep-03 02:20 114 18.3
2015-Sep-03 02:05 115 18.3
2015-Sep-03 01:52 070 0 gusting 1 18.3
2015-Sep-03 01:20 217 18.3
2015-Sep-03 00:50 277 1 gusting 2 17.8
2015-Sep-03 00:20 264 17.8
2015-Sep-03 00:04 225 18.3
2015-Sep-02 23:34 238 18.9
2015-Sep-02 23:19 132 18.9
2015-Sep-02 21:49 116 0 gusting 2 20.0
2015-Sep-02 21:34 082 1 gusting 3 20.0
2015-Sep-02 21:19 105 2 gusting 3 20.0
2015-Sep-02 21:04 089 1 20.6
2015-Sep-02 20:49 143 20.0
2015-Sep-02 20:34 105 20.0
2015-Sep-02 20:19 070 20.6
2015-Sep-02 19:49 086 20.6
2015-Sep-02 19:34 248 20.6
2015-Sep-02 19:04 086 1 gusting 4 21.7
2015-Sep-02 18:49 085 0 gusting 3 22.2
2015-Sep-02 18:19 049 1 gusting 3 21.7
2015-Sep-02 18:04 184 0 gusting 2 21.7
2015-Sep-02 17:49 167 22.2
2015-Sep-02 17:34 122 22.8
2015-Sep-02 17:04 082 3 gusting 6 22.8
2015-Sep-02 16:49 067 6 gusting 7 23.3
2015-Sep-02 16:34 087 6 gusting 11 23.9
2015-Sep-02 16:19 098 6 gusting 7 25.0
2015-Sep-02 15:48 334 26.1
2015-Sep-02 15:04 253 6 gusting 11 26.1
2015-Sep-02 14:34 225 3 gusting 6 26.1
2015-Sep-02 14:04 212 3 gusting 9 27.2
2015-Sep-02 13:49 193 6 gusting 13 27.8
2015-Sep-02 13:04 248 4 gusting 11 28.9
2015-Sep-02 12:49 206 3 gusting 13 28.3
2015-Sep-02 12:04 134 4 gusting 14 27.8
2015-Sep-02 11:34 226 6 gusting 15 28.3
2015-Sep-02 11:19 195 5 gusting 10 28.3
2015-Sep-02 11:04 127 2 gusting 11 28.3
2015-Sep-02 10:33 204 8 gusting 15 27.2
2015-Sep-02 10:18 176 3 gusting 8 27.8
2015-Sep-02 09:48 165 4 gusting 12 26.7
2015-Sep-02 09:18 138 3 gusting 8 26.7
2015-Sep-02 08:48 119 2 gusting 6 25.6
2015-Sep-02 08:33 096 3 gusting 7 25.0
2015-Sep-02 08:18 194 1 gusting 6 24.4
2015-Sep-02 07:48 084 2 gusting 4 22.2
2015-Sep-02 07:33 116 2 gusting 3 21.7
2015-Sep-02 07:18 106 21.1
2015-Sep-02 07:03 310 20.0
2015-Sep-02 06:47 330 20.0
2015-Sep-02 06:32 137 18.9
2015-Sep-02 06:02 217 16.7
2015-Sep-02 05:47 221 16.7
2015-Sep-02 05:32 166 16.7
2015-Sep-02 05:17
2015-Sep-02 05:02
2015-Sep-02 04:47
2015-Sep-02 04:17
2015-Sep-02 03:32
2015-Sep-02 03:17
2015-Sep-02 03:02
2015-Sep-02 02:46
2015-Sep-02 02:31 212 16.7
2015-Sep-02 02:16 212 16.7
2015-Sep-02 02:01 297 17.2
2015-Sep-02 01:46 298 17.2
2015-Sep-02 01:31 252 16.7
2015-Sep-02 01:16 250 16.7
2015-Sep-02 00:46 311 0 gusting 1 16.1
2015-Sep-02 00:31 262 16.1
2015-Sep-02 00:01 262 16.7
2015-Sep-01 23:31 283 17.2
2015-Sep-01 23:01 271 17.2
2015-Sep-01 22:46 235 17.2
2015-Sep-01 22:31 255 17.8
2015-Sep-01 22:16 221 17.8
2015-Sep-01 21:31 219 0 gusting 0 18.9
2015-Sep-01 21:16 215 18.9
2015-Sep-01 21:01 215 19.4
2015-Sep-01 20:31 219 20.6
2015-Sep-01 20:16 219 21.1
2015-Sep-01 19:46 273 22.8
2015-Sep-01 19:31 271 23.9
2015-Sep-01 19:01 271 1 gusting 3 25.0
2015-Sep-01 18:46 342 0 gusting 1 24.4
2015-Sep-01 18:31 271 25.0
2015-Sep-01 18:16 249 0 gusting 3 25.6
2015-Sep-01 18:01 260 1 gusting 5 26.1
2015-Sep-01 17:46 263 1 gusting 3 26.7
2015-Sep-01 17:31 250 0 gusting 3 27.2
2015-Sep-01 17:16 267 3 gusting 6 27.8
2015-Sep-01 17:01 264 4 gusting 6 28.3
2015-Sep-01 16:46 271 4 gusting 7 28.9
2015-Sep-01 16:31 264 3 gusting 6 29.4
2015-Sep-01 16:16 233 5 gusting 9 29.4
2015-Sep-01 16:01 267 6 gusting 8 30.0
2015-Sep-01 15:46 250 4 gusting 10 30.0
2015-Sep-01 15:31 212 6 gusting 8 30.6
2015-Sep-01 15:16 218 3 gusting 7 30.6
2015-Sep-01 15:01 269 7 gusting 10 30.6
2015-Sep-01 14:46 230 1 gusting 6 31.1
2015-Sep-01 14:30 264 5 gusting 13 30.6
2015-Sep-01 14:15 221 5 gusting 13 30.6
2015-Sep-01 14:00 210 3 gusting 13 30.6
2015-Sep-01 13:45 283 3 gusting 12 30.6
2015-Sep-01 13:30 256 5 gusting 11 30.6
2015-Sep-01 13:15 267 6 gusting 13 30.6
2015-Sep-01 13:00 269 8 gusting 13 31.1
2015-Sep-01 12:45 249 3 gusting 12 31.1
2015-Sep-01 12:30 214 8 gusting 14 30.6
2015-Sep-01 12:15 222 7 gusting 13 30.6
2015-Sep-01 12:00 132 0 gusting 10 30.6
2015-Sep-01 11:45 221 6 gusting 10 30.6
2015-Sep-01 11:30 222 4 gusting 10 30.6
2015-Sep-01 11:15 184 2 gusting 8 30.6
2015-Sep-01 11:00 204 1 gusting 7 30.6
2015-Sep-01 10:45 207 4 gusting 8 30.0
2015-Sep-01 10:30 226 2 gusting 8 30.0
2015-Sep-01 10:15 158 3 gusting 8 29.4
2015-Sep-01 10:00 153 3 gusting 7 28.9
2015-Sep-01 09:45 051 3 gusting 6 27.8
2015-Sep-01 09:30 039 0 gusting 6 27.2
2015-Sep-01 09:15 061 1 gusting 5 26.7
2015-Sep-01 09:00 110 3 gusting 4 26.1
2015-Sep-01 08:45 098 1 gusting 4 26.1
2015-Sep-01 08:30 121 0 gusting 3 24.4
2015-Sep-01 08:15 089 1 gusting 3 23.3
2015-Sep-01 07:59 066 2 gusting 4 22.8
2015-Sep-01 07:44 106 1 gusting 2 22.8
2015-Sep-01 07:29 117 22.2
2015-Sep-01 07:14 094 0 gusting 2 21.1
2015-Sep-01 06:59 210 20.0
2015-Sep-01 06:44 266 18.3
2015-Sep-01 06:29 293 17.8
2015-Sep-01 06:14 281 17.2
2015-Sep-01 05:59 282 16.7
2015-Sep-01 05:44 282 0 gusting 1 14.4
2015-Sep-01 05:29 280 13.9
2015-Sep-01 05:14 336 13.3
2015-Sep-01 04:59
2015-Sep-01 04:44
2015-Sep-01 04:29
2015-Sep-01 04:14